EW7757 Weather Reports


Display with metric or nautical units.
time (UTC)temp
F
wind
direction
speed
MPH
gust
MPH
rain 1hr
in
rain 24hr
in
rain mn
in
humidity
%
barometer
mb
20260505094600 47 180 0.0 0.0 0.00 0.01 0.00 89 1018.9
20260505093055 47 180 0.0 2.0 0.00 0.01 0.00 89 1018.7
20260505091550 48 180 0.0 0.0 0.00 0.01 0.00 87 1018.5
20260505090053 48 180 0.0 0.0 0.00 0.01 0.00 86 1018.5
20260505084544 49 180 0.0 0.0 0.00 0.01 0.00 84 1018.2
20260505083057 50 180 0.0 0.0 0.00 0.01 0.00 83 1017.9
20260505081541 51 47 0.0 0.0 0.00 0.02 0.00 80 1017.8
20260505080043 52 317 0.0 0.0 0.00 0.02 0.00 79 1017.6
20260505074539 53 311 0.0 4.0 0.00 0.02 0.00 78 1017.3
20260505073040 53 281 0.0 6.0 0.00 0.02 0.00 76 1017.1
20260505071535 54 296 3.0 7.0 0.00 0.02 0.00 75 1016.8
20260505070041 55 289 1.0 8.0 0.00 0.02 0.00 74 1016.6
20260505064534 56 314 3.0 8.0 0.00 0.02 0.00 72 1016.3
20260505063033 57 317 2.0 7.0 0.00 0.02 0.00 71 1016.3
20260505061552 58 291 3.0 7.0 0.00 0.02 0.00 68 1016.1
20260505060036 58 307 2.0 8.0 0.00 0.02 0.00 67 1016.1
20260505054544 59 302 2.0 6.0 0.00 0.02 0.00 66 1015.9
20260505053036 59 306 3.0 8.0 0.00 0.02 0.00 67 1015.6
20260505051533 59 277 2.0 8.0 0.00 0.03 0.00 67 1015.5
20260505041525 58 247 6.0 12.0 0.00 0.03 0.00 66 1015.1
20260505040037 58 279 4.0 13.0 0.00 0.03 0.00 67 1015.2
20260505034534 58 270 4.0 11.0 0.00 0.03 0.00 66 1015.2
20260505033021 58 283 4.0 12.0 0.00 0.03 0.00 64 1015.1
20260505031519 58 276 4.0 11.0 0.00 0.03 0.00 67 1015.2
20260505030019 57 278 4.0 11.0 0.00 0.03 0.00 67 1015.3
20260505024516 57 278 5.0 10.0 0.00 0.03 0.00 66 1015.3
20260505023013 57 241 4.0 10.0 0.00 0.03 0.00 65 1015.7
20260505021509 56 278 4.0 11.0 0.00 0.03 0.00 65 1016.0
20260505020012 56 276 4.0 9.0 0.00 0.03 0.00 68 1016.0
20260505014505 56 283 5.0 11.0 0.00 0.03 0.00 70 1016.2
20260505013004 55 247 6.0 10.0 0.00 0.04 0.00 70 1016.2
20260505011502 55 281 5.0 10.0 0.00 0.04 0.00 72 1016.4
20260505010001 55 258 4.0 10.0 0.00 0.04 0.00 72 1016.6
20260505004601 55 324 2.0 7.0 0.00 0.04 0.00 72 1016.7
20260505003056 54 291 2.0 7.0 0.00 0.04 0.00 76 1016.6
20260505001555 53 306 3.0 9.0 0.00 0.04 0.00 75 1016.4
20260505000100 52 358 0.0 4.0 0.00 0.04 0.00 78 1016.5
20260504234602 53 259 1.0 5.0 0.00 0.04 0.00 80 1016.4
20260504233047 52 303 0.0 4.0 0.00 0.04 0.00 82 1016.3
20260504231543 51 180 3.0 10.0 0.00 0.05 0.00 83 1016.0
20260504230041 51 180 3.0 9.0 0.00 0.05 0.00 83 1015.8
20260504224538 50 285 2.0 4.0 0.00 0.05 0.00 86 1015.9
20260504223036 49 285 1.0 3.0 0.00 0.05 0.00 88 1015.8
20260504221534 48 288 0.0 2.0 0.00 0.06 0.05 91 1015.7
20260504220043 46 283 0.0 3.0 0.00 0.06 0.05 93 1015.4
20260504214534 45 180 0.0 3.0 0.00 0.06 0.05 93 1015.1
20260504213045 44 180 1.0 2.0 0.00 0.06 0.05 93 1014.8
20260504211539 44 180 0.0 1.0 0.00 0.06 0.05 93 1014.9
20260504210031 44 180 0.0 2.0 0.00 0.06 0.05 92 1014.6
20260504204537 44 180 1.0 3.0 0.00 0.06 0.05 92 1014.3
20260504203023 45 180 0.0 0.0 0.00 0.06 0.05 91 1014.1
20260504201520 45 180 0.0 1.0 0.01 0.06 0.05 91 1013.9
20260504200018 46 180 1.0 5.0 0.01 0.06 0.05 91 1013.6
20260504194517 46 180 3.0 5.0 0.01 0.06 0.05 91 1013.2
20260504193020 46 180 3.0 8.0 0.01 0.06 0.05 91 1013.1
20260504191520 46 180 3.0 6.0 0.00 0.06 0.04 91 1013.0
20260504190022 46 180 2.0 6.0 0.00 0.06 0.04 91 1013.0
20260504184518 47 180 0.0 3.0 0.00 0.06 0.04 90 1012.8
20260504183019 47 180 1.0 4.0 0.00 0.06 0.04 90 1012.6
20260504181520 47 180 2.0 5.0 0.00 0.06 0.04 91 1012.5
20260504180020 47 180 1.0 8.0 0.00 0.06 0.04 91 1012.2
20260504174520 46 180 4.0 9.0 0.00 0.06 0.04 91 1012.1
20260504173017 46 180 4.0 6.0 0.00 0.06 0.04 91 1012.1
20260504171516 47 180 3.0 8.0 0.00 0.06 0.04 91 1012.1